Weather History for PAKW - April, 2014

Change the Weather History Date:

Wednesday, April 23, 2014

  Actual Average Record
Temperature  
Mean Temperature 44 °F -  
Max Temperature 53 °F 50 °F 75 °F (2005)
Min Temperature 33 °F 34 °F 30 °F (2008)
Degree Days  
Heating Degree Days 21    
Moisture  
Dew Point 34 °F    
Average Humidity 74    
Maximum Humidity 100    
Minimum Humidity 45    
Precipitation  
Precipitation 0.00 in - - ()
Sea Level Pressure  
Sea Level Pressure 29.74 in    
Wind  
Wind Speed 3 mph (West)    
Max Wind Speed 9 mph    
Max Gust Speed -    
Visibility 10 miles    
Events      
Averages and records for this station are not official NWS values.
T = Trace of Precipitation, MM = Missing Value Source: NWS Daily Summary

Daily Weather History Graph

Daily Weather History Graph

Search for Another Location

Airport or City:

Trip Planner

Search our weather history database for the weather conditions in past years. The results will help you decide how hot, cold, wet, or windy it might be!

Date:

Astronomy

Apr. 23, 2014 Rise Set
Actual Time 5:27 AM AKDT 8:14 PM AKDT
Civil Twilight 4:46 AM AKDT 8:56 PM AKDT
Nautical Twilight 3:51 AM AKDT 9:51 PM AKDT
Astronomical Twilight 2:41 AM AKDT 11:03 PM AKDT
Moon 3:07 AM AKDT (4/23) 1:31 PM AKDT (4/23)
Length of Visible Light 16h 10m
Length of Day
14h 46m
Waning Crescent, 33% of the Moon is Illuminated
Apr 23
Waning Crescent
Apr 28
New
May 6
First Quarter
May 14
Full
May 21
Last Quarter

Hourly Weather History & Observations

Time (AKDT) Temp. Windchill Dew Point Humidity Pressure Visibility Wind Dir Wind Speed Gust Speed Precip Events Conditions
12:53 AM 39.9 °F - 37.0 °F 89% 29.79 in 10.0 mi Calm Calm - N/A   Overcast
1:53 AM 39.9 °F 37.8 °F 37.0 °F 89% 29.79 in 10.0 mi South 3.5 mph - N/A   Overcast
2:53 AM 39.9 °F - 37.0 °F 89% 29.80 in 10.0 mi Calm Calm - N/A   Overcast
3:53 AM 39.0 °F - 36.0 °F 89% 29.80 in 10.0 mi Calm Calm - N/A   Overcast
4:53 AM 39.0 °F - 36.0 °F 89% 29.80 in 10.0 mi Calm Calm - N/A   Overcast
5:53 AM 39.0 °F - 35.1 °F 86% 29.80 in 10.0 mi Calm Calm - N/A   Overcast
6:53 AM 39.9 °F - 35.1 °F 83% 29.80 in 10.0 mi Calm Calm - N/A   Overcast
7:53 AM 41.0 °F - 36.0 °F 82% 29.79 in 10.0 mi Calm Calm - N/A   Overcast
8:14 AM 41.0 °F - 36.0 °F 82% 29.79 in 10.0 mi Calm Calm - N/A   Overcast
8:53 AM 42.1 °F 38.4 °F 35.1 °F 76% 29.79 in 10.0 mi NNE 5.8 mph - N/A   Overcast
9:53 AM 44.1 °F 40.8 °F 33.1 °F 65% 29.78 in 10.0 mi North 5.8 mph - N/A   Overcast
10:53 AM 44.1 °F 40.8 °F 30.9 °F 60% 29.78 in 10.0 mi North 5.8 mph - N/A   Overcast
11:53 AM 46.0 °F 43.9 °F 32.0 °F 58% 29.77 in 10.0 mi NNE 4.6 mph - N/A   Overcast
12:53 PM 48.9 °F - 35.1 °F 59% 29.75 in 10.0 mi WNW 8.1 mph - N/A   Clear
1:53 PM 50.0 °F - 33.1 °F 52% 29.74 in 10.0 mi NW 5.8 mph - N/A   Clear
2:53 PM 51.1 °F - 32.0 °F 48% 29.73 in 10.0 mi WSW 9.2 mph - N/A   Clear
3:53 PM 53.1 °F - 32.0 °F 45% 29.70 in 10.0 mi SW 6.9 mph - N/A   Partly Cloudy
4:53 PM 48.9 °F - 35.1 °F 59% 29.70 in 10.0 mi SW 8.1 mph - N/A   Clear
5:53 PM 48.0 °F - 36.0 °F 63% 29.69 in 10.0 mi WSW 8.1 mph - N/A   Partly Cloudy
6:53 PM 45.0 °F 41.8 °F 35.1 °F 68% 29.68 in 10.0 mi WSW 5.8 mph - N/A   Clear
7:53 PM 44.1 °F 41.5 °F 35.1 °F 71% 29.68 in 10.0 mi SSW 4.6 mph - N/A   Scattered Clouds
8:53 PM 41.0 °F 38.0 °F 34.0 °F 76% 29.67 in 10.0 mi South 4.6 mph - N/A   Overcast
9:53 PM 37.9 °F - 33.1 °F 83% 29.66 in 10.0 mi Calm Calm - N/A   Clear
10:53 PM 35.1 °F - 32.0 °F 89% 29.66 in 10.0 mi Calm Calm - N/A   Clear
11:53 PM 33.1 °F - 33.1 °F 100% 29.66 in 10.0 mi Calm Calm - N/A   Clear